Wind_Speed
88 90 92 93 94 96 98 100 101 103 105 107 109 111 113 114 115 116 115 114 111 109 106 103 100 96 92 88 84 80 76 73 69 66 62 59 55 51 48 45 43 41 40 39 38 37 36 35 35 34 34 34 34 34 35 35 35 35 35 35 35 35 35 36 36 37 38 38 39 40 42 43 44 45 46 47 48 48 49 50 51 53 54 55 57 58
91 92 94 95 96 98 100 102 104 106 108 110 112 114 115 115 115 114 112 108 105 101 97 94 90 87 83 78 74 70 67 64 61 58 55 51 48 46 44 42 40 39 38 37 36 35 34 34 34 34 34 34 35 35 35 36 36 36 36 36 36 36 36 36 36 36 37 37 38 39 40 41 42 43 45 46 47 48 49 49 50 51 52 53 54 55
93 94 96 98 99 101 103 105 107 109 111 112 114 115 114 113 111 108 104 101 97 93 89 85 81 77 73 69 65 62 59 56 54 51 49 47 45 43 42 40 39 37 36 35 34 33 33 33 33 34 35 35 36 36 37 37 37 37 38 38 38 38 37 37 37 37 37 37 38 38 39 40 41 42 43 45 46 47 48 49 50 50 51 52 52 53
95 96 98 100 102 104 105 107 110 112 113 114 114 113 111 108 104 100 96 92 88 84 80 76 71 67 64 61 57 54 52 50 49 47 46 44 43 42 40 38 37 35 34 33 33 33 33 34 34 35 36 36 37 37 37 38 38 38 39 39 39 39 39 39 39 39 38 38 38 39 39 39 40 41 42 43 45 46 47 48 49 50 51 52 52 52
97 99 101 103 105 107 109 111 112 113 114 113 111 108 104 100 96 92 88 83 78 74 70 66 63 59 56 53 51 49 48 47 46 45 44 43 41 40 38 36 35 33 33 32 32 33 34 35 35 36 37 37 37 37 37 38 38 38 39 39 39 39 40 40 40 40 40 40 40 40 40 40 41 41 42 43 44 45 46 47 48 49 50 51 52 52
100 102 103 105 108 110 111 112 113 112 111 109 105 101 95 91 86 82 78 74 69 65 61 58 55 52 50 48 46 45 45 44 44 44 43 41 39 37 36 34 33 32 32 33 33 34 35 36 37 37 37 37 37 37 37 37 37 37 38 38 38 39 39 39 40 40 41 41 41 41 42 42 42 42 43 43 44 45 46 47 47 48 49 50 51 52
103 105 107 109 111 112 112 112 110 108 104 101 97 93 87 82 77 72 69 65 61 57 54 51 49 47 45 44 44 43 43 43 43 42 41 39 37 35 34 33 32 33 33 34 35 36 36 37 38 38 38 38 37 37 37 37 37 37 37 37 37 37 38 38 39 40 40 41 42 42 43 43 44 44 44 44 45 45 45 46 47 47 48 49 50 51
106 109 111 112 112 112 111 109 106 101 96 91 87 83 79 74 69 64 60 56 53 50 48 46 44 43 42 42 42 42 42 42 42 41 39 37 35 33 32 32 33 33 34 35 36 37 38 38 38 38 38 38 38 37 37 37 37 37 36 36 36 36 37 38 39 40 41 41 42 43 44 44 45 45 45 45 45 45 46 46 46 47 47 48 49 50
110 111 112 112 111 108 105 103 100 95 88 82 77 73 69 65 61 57 52 49 46 45 43 42 41 41 41 41 41 41 41 41 40 39 37 35 33 32 32 33 34 35 36 37 38 38 39 39 39 39 38 38 38 38 38 38 38 37 37 37 37 37 37 38 39 40 41 42 43 44 45 45 46 46 46 46 46 46 46 46 46 46 46 47 48 48
112 112 111 110 107 103 97 93 90 86 80 74 69 64 60 56 53 50 47 44 42 41 40 40 39 39 39 39 40 40 40 40 39 37 35 34 32 32 32 33 35 36 37 38 38 39 39 39 39 39 39 39 39 39 39 39 38 38 37 37 37 37 38 39 40 41 42 43 44 45 45 46 46 46 46 46 46 45 45 45 45 45 46 46 47 47
112 111 108 104 101 97 91 86 81 76 71 66 61 57 53 49 46 43 41 40 39 38 38 38 38 38 38 38 38 38 38 38 37 36 34 33 32 32 33 34 36 37 38 38 39 39 39 39 39 39 39 39 40 40 40 39 39 38 38 37 38 38 39 40 41 42 43 44 45 45 46 46 46 46 46 45 45 45 45 45 45 45 45 45 46 46
109 106 102 98 93 89 84 79 73 67 62 57 53 51 48 45 42 40 38 37 37 37 37 37 37 36 37 37 37 37 37 37 36 34 33 32 32 33 34 35 36 37 38 38 39 39 39 39 38 39 39 40 40 40 40 39 38 38 37 37 38 39 40 41 42 43 44 45 45 46 46 46 45 45 45 44 44 44 44 44 44 44 44 45 45 46
104 100 95 91 85 80 75 70 65 59 55 50 47 45 43 41 39 37 36 36 36 36 36 35 35 35 35 35 36 36 36 35 34 33 32 32 32 33 34 35 36 37 38 38 38 38 38 38 38 38 39 39 40 40 39 38 38 37 38 38 39 40 41 42 43 44 44 45 45 45 45 45 44 44 43 43 43 43 43 43 43 43 44 44 44 45
97 93 88 83 78 72 67 61 56 52 48 45 43 41 39 38 37 36 35 35 35 35 34 34 33 33 33 34 35 36 35 34 33 32 31 31 32 33 34 35 36 37 37 37 37 37 37 37 37 38 38 39 39 39 38 37 37 38 38 40 41 42 42 43 44 44 45 44 44 44 43 43 42 42 42 42 42 42 42 42 42 42 43 43 44 44
89 84 79 75 70 64 59 54 49 46 44 41 40 38 37 36 35 35 35 35 34 33 33 32 31 31 31 33 34 35 35 33 32 31 30 30 31 32 34 35 35 36 36 36 36 36 36 36 37 37 38 38 38 38 37 37 37 38 40 41 42 43 43 44 44 44 43 43 42 41 41 41 40 40 40 40 40 40 40 40 40 41 41 42 43 44
81 76 71 66 62 57 52 48 44 42 40 39 37 36 36 35 35 34 34 34 33 32 31 30 29 29 29 31 33 34 34 33 32 30 29 29 30 32 33 34 34 35 35 35 35 36 36 36 37 37 37 37 37 37 37 37 38 39 41 42 43 43 44 44 43 42 41 40 40 39 39 38 38 38 38 37 37 37 37 37 38 38 39 40 41 42
73 68 64 59 55 50 46 43 41 39 38 37 36 35 35 35 35 34 33 32 32 31 30 29 28 27 27 28 30 33 34 33 32 30 28 28 28 30 32 33 34 34 34 35 35 35 35 36 36 37 37 37 37 37 37 38 39 40 41 42 43 43 43 42 41 40 39 38 37 36 36 36 35 35 35 35 34 34 35 35 35 35 36 37 38 40
66 61 57 53 49 45 42 40 38 37 36 36 35 35 35 34 34 33 32 31 31 30 29 28 28 27 27 27 28 31 32 32 31 29 27 26 27 29 32 33 34 34 34 34 35 35 35 36 36 36 36 36 37 37 38 39 40 41 42 42 42 42 41 40 39 38 36 35 34 34 33 33 32 32 32 32 32 32 32 32 32 33 33 34 35 37
60 55 51 47 44 41 38 37 37 36 36 36 35 35 35 34 33 32 31 30 30 29 29 28 27 27 27 27 28 29 31 31 30 28 26 26 26 29 31 33 33 33 34 34 34 35 35 35 36 36 36 37 37 38 39 40 41 41 42 41 41 40 39 38 37 35 34 33 32 31 30 30 29 29 29 29 29 29 29 29 30 30 31 31 32 33
54 50 46 43 40 38 36 36 36 36 36 36 35 35 34 33 31 30 30 29 29 29 28 28 27 27 27 27 28 29 30 30 29 28 26 25 26 28 31 32 33 33 33 33 34 34 35 35 35 36 37 37 38 39 40 41 41 41 41 40 39 38 37 36 34 33 32 31 29 29 28 27 27 27 27 27 27 27 27 27 27 28 28 29 29 30
49 45 42 39 37 36 36 36 36 37 37 36 36 35 33 32 30 29 28 28 28 28 28 28 27 27 27 28 28 29 30 30 29 27 25 25 25 28 30 32 32 32 32 33 34 34 35 35 36 36 37 38 39 40 41 41 41 40 40 38 37 36 34 33 32 30 29 28 28 27 26 26 26 26 26 26 26 26 26 26 26 26 26 26 27 27
44 42 39 37 36 36 36 36 37 37 37 37 36 34 33 31 29 28 28 28 28 27 27 27 27 27 28 28 29 29 30 30 29 28 26 24 25 27 30 31 32 32 32 33 33 34 35 36 36 37 38 39 40 40 41 41 40 39 38 37 35 33 32 30 29 28 27 27 26 26 26 26 26 26 26 26 26 26 26 26 26 26 26 26 25 26
41 39 37 36 36 36 36 37 37 37 37 37 36 34 32 31 29 28 28 27 27 27 27 27 27 27 28 28 29 30 30 31 30 28 27 25 25 27 29 31 31 32 32 33 34 35 35 36 37 37 38 39 40 41 41 41 40 38 36 35 33 31 30 28 27 26 26 25 26 26 26 27 27 27 27 26 26 26 26 26 26 26 26 25 25 25
39 37 37 36 37 37 37 37 38 37 37 36 35 33 32 30 29 28 28 28 27 27 27 27 27 27 27 28 29 30 31 31 31 29 28 26 26 28 29 31 31 32 32 33 34 35 36 36 37 38 38 39 40 41 41 40 38 37 35 33 31 29 28 26 25 25 25 25 26 26 27 27 27 27 27 26 26 26 26 26 26 26 26 25 25 25
38 37 37 37 37 37 38 38 37 37 37 36 34 33 31 30 29 28 28 28 28 28 28 27 27 27 27 28 29 30 31 32 31 31 29 28 28 28 30 31 32 32 32 33 34 36 36 36 37 37 39 40 40 41 40 39 37 35 33 31 30 28 27 25 25 25 25 25 26 27 27 27 27 27 26 26 26 25 25 26 25 25 25 25 25 24
38 38 38 38 38 38 38 37 37 36 36 35 34 33 32 31 30 29 29 29 29 29 28 28 28 28 28 28 29 30 31 32 32 31 31 30 29 29 31 32 32 33 33 33 34 35 36 36 37 37 38 39 40 40 39 38 36 34 32 30 29 27 26 25 25 25 25 26 26 27 27 27 26 26 25 24 24 24 24 25 25 25 25 24 24 23
39 38 38 38 38 37 37 36 36 35 35 35 34 33 33 32 31 31 30 30 30 30 30 29 29 29 29 29 30 31 32 32 32 32 31 31 30 30 31 32 33 33 33 33 34 35 36 36 36 37 38 39 39 39 38 36 35 33 31 29 28 27 26 25 25 25 26 26 26 26 26 26 25 24 23 22 22 22 23 23 24 24 24 23 23 22
39 39 38 38 37 37 36 36 35 35 35 34 34 34 34 34 34 33 33 32 32 32 31 31 31 31 30 30 31 32 33 33 33 32 32 32 31 31 32 33 33 33 33 33 34 35 36 36 36 37 37 38 38 38 36 35 33 31 30 28 27 26 26 25 25 25 26 26 26 26 25 24 23 21 21 21 21 21 21 22 22 23 22 22 21 21
38 38 38 37 37 36 36 35 35 35 35 35 35 35 35 35 36 36 35 35 34 34 34 33 33 33 32 32 32 32 33 34 34 33 33 32 32 32 32 33 33 33 33 32 33 34 36 36 37 37 37 37 37 36 34 32 31 29 28 28 27 26 26 25 25 25 26 26 25 24 23 21 20 19 19 19 19 20 20 21 21 21 21 21 20 20
37 37 37 36 36 36 36 35 36 36 36 36 36 37 37 37 37 37 37 37 37 36 36 35 35 35 34 33 33 33 34 34 34 34 33 33 33 33 33 33 34 33 33 32 32 33 34 36 37 37 36 36 35 34 32 30 29 28 27 27 27 26 26 25 25 25 24 24 24 22 20 19 18 17 17 17 18 18 19 19 20 20 21 20 20 20
36 36 36 35 35 36 36 36 37 37 37 38 38 38 38 38 38 39 39 39 38 38 38 37 37 36 36 35 35 34 34 34 35 34 34 34 33 33 33 33 34 34 33 32 31 31 32 34 36 36 36 35 34 32 30 28 27 26 26 26 26 26 25 25 24 23 23 22 21 20 18 17 17 17 16 16 16 17 18 19 20 20 21 21 21 21
36 35 35 35 36 36 36 37 37 38 38 38 38 39 39 39 39 39 40 40 39 39 39 39 38 38 37 37 36 36 35 35 35 35 34 34 33 33 33 33 33 33 33 32 32 31 30 31 33 35 35 34 32 30 28 27 26 25 25 25 25 25 25 24 23 22 21 20 19 18 17 17 17 17 17 17 17 17 18 19 20 21 22 22 22 22
36 36 36 36 36 37 37 38 38 38 38 38 38 38 39 39 39 39 40 40 40 39 39 39 38 38 37 37 37 36 36 36 36 35 35 34 33 33 33 33 33 33 32 32 31 31 30 30 31 32 33 32 31 29 27 25 25 24 24 25 25 25 25 24 22 21 19 18 17 17 17 17 18 18 18 18 19 19 20 21 22 23 24 24 24 24
36 36 36 37 37 37 38 38 38 38 38 37 37 38 38 38 38 38 39 39 39 39 39 39 38 38 37 36 36 36 35 36 36 35 35 34 33 32 32 32 32 32 31 30 30 30 30 30 30 30 30 30 29 27 26 24 24 24 25 25 25 26 25 24 22 19 18 17 16 17 17 17 18 18 19 20 21 21 22 23 24 25 26 26 26 26
37 37 37 37 37 37 37 37 37 37 36 36 36 36 37 37 37 37 37 37 38 38 38 38 38 37 37 36 35 34 34 34 34 35 34 33 32 32 31 31 31 31 30 29 28 28 28 29 29 29 28 27 26 25 24 24 23 24 25 25 26 27 26 23 20 18 16 16 16 16 17 17 18 19 20 21 22 23 24 25 26 27 28 28 29 29
37 37 37 37 37 36 36 36 35 35 35 35 35 35 35 35 35 35 35 36 36 36 36 37 37 37 37 36 35 34 33 33 33 33 33 32 32 31 30 30 30 30 29 28 27 26 27 27 28 28 27 25 24 23 23 23 23 23 24 25 27 27 26 23 19 16 15 15 15 16 16 17 18 19 21 22 23 24 25 26 27 28 29 30 31 31
37 37 37 36 36 35 34 34 34 34 33 33 33 33 33 33 34 34 34 34 34 35 35 35 36 36 36 35 35 34 33 32 32 32 31 31 31 30 29 29 29 29 28 27 26 25 25 26 26 26 26 24 23 22 21 21 21 21 22 24 26 26 25 22 18 15 15 15 15 16 17 18 19 21 22 24 25 25 26 27 28 29 30 31 32 33
37 36 36 35 34 33 32 32 32 32 32 32 32 32 32 32 32 32 33 33 33 33 34 34 34 35 35 35 34 34 33 32 31 31 30 30 30 29 28 28 27 27 27 26 25 24 24 24 24 24 24 23 22 22 21 20 19 19 21 22 24 25 24 21 18 15 15 15 15 16 18 19 21 23 24 25 26 26 27 28 28 29 30 32 33 34
35 35 34 33 32 31 31 31 31 31 31 30 30 30 30 30 30 31 31 32 32 32 33 33 33 34 34 34 34 33 33 32 31 30 30 29 29 28 27 27 26 26 25 25 25 24 24 24 23 22 21 21 21 21 21 20 19 19 19 20 22 23 23 20 18 15 15 15 16 17 19 21 23 25 26 26 26 27 27 28 28 29 30 32 33 34
34 32 32 31 30 30 29 29 29 29 29 29 29 29 29 29 29 30 30 31 31 32 32 32 32 33 33 33 33 33 33 32 31 30 29 29 28 27 26 26 25 24 24 24 24 24 24 23 22 21 20 19 19 19 19 19 19 19 19 19 19 20 21 20 18 16 16 16 17 19 21 23 24 25 25 25 26 26 27 27 28 29 30 31 33 34
31 30 29 29 29 29 29 29 29 29 29 28 28 28 28 28 28 29 30 30 31 31 31 31 31 32 32 33 33 33 33 32 31 31 29 28 28 27 26 25 24 23 23 22 23 23 23 23 22 20 19 18 17 17 18 18 19 19 20 19 18 18 19 18 17 17 16 17 19 20 22 23 24 24 24 24 25 25 26 27 28 29 30 31 32 33
29 28 28 28 28 28 28 28 28 28 28 28 28 28 27 28 28 28 29 30 30 30 30 30 30 31 31 32 33 33 33 33 32 31 30 29 28 27 25 24 23 22 22 21 21 22 23 22 21 19 18 17 16 16 16 17 18 19 20 20 18 17 16 17 17 17 17 18 19 21 22 22 22 23 23 23 24 25 26 27 28 29 30 31 32 33
27 27 27 27 27 27 28 28 28 28 28 28 28 28 28 28 28 28 29 29 30 30 30 30 30 30 30 31 31 32 33 33 33 33 31 30 29 27 25 24 23 22 21 20 20 21 21 21 20 19 17 16 15 15 15 16 17 19 20 20 18 16 15 15 15 16 17 18 19 20 20 20 21 21 22 23 24 25 25 26 28 29 30 30 31 32
26 26 26 27 27 27 28 28 28 28 28 28 28 28 28 28 28 29 29 30 30 30 30 30 30 29 29 29 30 30 31 32 32 33 32 31 30 28 26 24 23 21 20 20 20 20 20 20 19 18 17 16 15 15 15 15 16 18 19 19 18 16 14 13 13 14 16 17 18 19 19 19 19 20 21 22 23 25 26 27 28 29 30 30 30 31
25 26 26 27 27 27 28 28 28 28 28 28 28 28 28 29 29 29 30 30 30 30 30 30 29 29 29 29 29 29 29 30 30 31 32 31 30 29 27 25 23 21 20 20 19 19 19 18 17 16 16 15 15 15 15 15 16 17 18 19 18 15 13 12 12 13 14 16 16 16 17 17 18 19 20 22 23 25 26 28 29 29 29 29 30 30
25 26 26 27 27 28 28 28 29 29 29 29 29 29 29 29 29 30 30 30 30 30 30 30 29 29 29 28 28 28 28 28 28 29 29 30 30 29 28 26 24 22 20 19 19 19 18 17 15 14 14 14 15 15 15 15 16 17 18 18 17 15 13 12 12 13 14 14 15 15 15 16 18 19 21 23 24 26 27 28 29 29 28 28 29 29
25 26 26 27 28 28 28 29 29 29 29 29 30 30 30 30 30 30 30 30 30 30 29 29 29 29 29 29 28 28 27 27 27 27 27 28 28 28 27 26 24 22 20 19 19 18 17 16 14 13 13 13 13 14 15 16 17 18 18 17 16 14 12 12 12 13 14 14 14 14 15 16 18 20 22 24 26 27 28 28 28 28 27 27 28 29
25 26 27 27 28 28 29 29 29 29 29 30 30 30 31 31 31 31 30 30 30 29 29 29 29 28 29 29 28 28 28 27 27 26 26 26 26 26 26 25 24 22 21 20 19 18 16 14 13 12 11 11 12 13 14 15 16 17 18 16 14 12 11 11 11 12 13 13 14 14 15 17 19 21 23 25 26 27 28 28 27 27 27 27 28 29
25 26 27 28 28 29 29 29 30 30 30 30 31 31 31 31 31 31 31 30 30 29 29 28 28 28 28 28 28 28 28 27 27 26 26 25 25 24 24 23 23 21 20 20 19 17 16 13 11 10 10 10 11 12 13 14 16 17 17 15 13 11 10 10 10 11 12 12 13 15 16 18 20 22 24 25 26 26 27 26 26 26 26 27 28 29
26 27 27 28 29 29 30 30 30 31 31 31 31 31 31 31 31 31 31 30 30 29 29 28 28 28 28 28 28 28 28 27 27 26 25 25 24 23 23 22 21 20 20 19 18 17 16 13 11 9 9 9 10 10 11 13 14 15 16 14 12 10 8 8 9 10 11 12 13 15 17 19 21 23 24 25 26 25 25 24 24 24 25 26 27 28
27 28 28 29 30 30 31 31 31 32 32 32 32 32 32 31 31 31 30 30 29 29 28 28 28 28 27 27 28 28 28 27 27 26 25 24 23 22 21 21 20 19 18 18 18 17 16 14 12 10 8 8 9 10 10 11 13 14 14 13 10 8 7 8 9 10 11 11 13 15 17 19 21 23 24 25 25 24 23 22 22 23 24 25 26 27
Wind_Direction
303 302 302 302 302 302 302 301 301 301 301 301 301 301 301 302 302 302 301 301 301 300 300 299 298 298 297 297 296 296 296 296 296 296 296 296 296 296 296 296 297 297 296 295 294 294 294 294 295 295 296 297 297 297 298 298 298 297 297 296 296 295 293 292 291 289 288 286 284 282 281 279 277 275 273 271 270 268 266 265 263 262 261 259 258 256
303 303 303 302 302 302 302 302 302 302 302 302 302 302 302 302 302 302 302 301 301 300 299 298 298 297 297 297 296 296 296 296 296 297 296 296 296 296 296 297 297 296 295 294 294 294 295 295 296 297 297 298 298 298 298 298 298 297 297 297 296 295 294 293 292 291 290 288 287 285 283 281 279 277 275 273 271 269 267 265 264 262 261 260 258 257
303 303 303 303 303 303 303 303 303 303 303 303 303 303 303 303 302 302 302 301 300 299 299 298 297 297 297 297 297 296 296 296 296 296 296 296 296 296 297 297 296 295 294 294 294 294 295 296 296 297 297 297 297 297 297 296 296 295 295 294 294 293 293 292 292 291 290 290 289 287 285 284 281 279 277 274 272 270 267 265 263 262 260 259 258 257
304 303 303 303 303 303 303 303 303 303 303 303 303 303 303 303 303 302 301 300 300 299 298 298 297 297 297 297 297 297 296 296 296 295 295 295 296 296 297 296 295 294 293 293 293 294 295 296 296 297 297 297 297 296 296 295 295 294 293 293 292 292 291 291 290 290 289 289 288 288 287 285 283 281 278 276 273 271 268 266 264 262 260 258 257 256
304 304 304 304 304 304 304 304 304 304 304 304 304 304 303 303 302 302 301 300 299 298 298 297 297 297 297 297 297 296 296 295 295 294 294 294 295 296 296 295 294 292 292 293 293 294 295 296 297 298 298 298 298 297 297 296 295 294 293 292 291 290 289 289 288 288 288 288 287 287 286 285 284 282 280 277 275 272 270 267 265 262 260 258 256 255
304 304 304 305 305 305 305 305 305 304 304 304 304 304 303 303 302 301 300 299 299 298 297 297 297 297 297 296 296 295 295 294 293 293 294 294 295 295 295 294 292 292 292 293 294 296 297 298 299 300 300 300 300 299 298 297 296 294 293 292 291 289 288 287 287 286 286 286 286 286 285 285 284 283 281 279 276 273 271 268 266 263 261 258 256 254
305 305 305 305 306 306 306 305 305 305 305 305 304 304 303 302 301 300 299 299 298 297 297 296 296 296 296 296 295 295 294 293 293 293 293 295 295 295 295 293 293 293 293 295 296 298 299 301 302 302 303 303 302 301 300 299 298 296 295 293 291 289 287 286 285 284 284 284 284 284 284 284 284 283 282 280 277 275 272 270 267 264 262 259 257 255
306 306 306 306 306 306 306 306 306 305 305 305 304 303 302 302 301 300 299 298 298 297 296 296 296 296 296 295 295 294 294 293 293 293 294 295 296 296 294 293 293 294 295 296 298 300 301 303 304 304 304 304 304 303 303 302 301 300 298 296 294 291 288 286 284 283 282 282 283 284 284 285 284 284 282 281 279 276 274 271 268 266 263 261 258 256
307 307 307 307 307 307 307 307 306 306 305 305 304 302 301 301 300 299 299 298 297 296 296 296 296 296 296 296 295 295 294 293 293 294 295 296 296 295 294 294 294 295 296 298 299 301 303 304 305 306 306 306 306 306 306 306 305 304 303 300 297 293 290 287 285 284 283 283 284 285 285 285 285 284 283 281 279 277 274 272 269 267 264 262 259 257
308 308 308 308 308 307 307 307 306 306 305 304 303 302 301 300 300 299 299 298 297 296 296 296 296 296 296 296 295 295 294 293 294 294 295 296 296 295 294 294 294 296 297 299 301 303 304 305 306 307 307 308 308 309 309 309 309 307 305 302 298 294 291 289 287 286 286 286 286 287 287 286 286 284 283 281 279 277 275 272 270 268 265 263 260 258
309 309 308 308 308 308 307 307 306 306 305 304 303 302 301 301 300 300 299 298 297 297 297 297 297 297 297 296 295 294 293 293 294 294 296 296 296 295 295 295 296 297 298 300 302 303 304 306 306 308 308 309 310 311 311 311 310 308 305 301 297 294 291 290 289 289 289 288 288 288 288 287 286 285 283 281 279 277 275 273 270 268 266 264 261 259
309 309 309 308 308 308 307 307 307 306 305 304 303 302 302 302 302 301 300 298 298 297 297 298 298 298 297 296 295 293 292 292 293 294 295 296 296 296 296 296 297 298 299 300 302 303 305 306 307 308 309 310 311 312 313 312 310 307 303 299 296 294 292 292 291 291 291 290 290 289 289 288 287 285 284 282 280 277 275 273 271 269 267 265 262 260
309 309 309 309 308 308 308 307 307 306 305 304 303 302 302 302 302 301 300 299 298 298 298 298 298 298 297 296 295 293 292 292 293 294 296 296 296 296 296 296 297 297 299 300 301 303 304 306 307 309 310 311 312 313 313 311 308 305 301 298 296 294 294 294 293 293 293 292 291 291 290 289 288 286 284 282 280 278 275 273 271 269 267 265 264 261
310 309 309 309 309 308 308 308 307 305 304 304 303 303 303 302 302 301 300 299 298 298 298 298 298 298 297 296 294 293 292 292 293 295 296 297 297 296 296 296 296 297 298 300 301 303 304 306 307 309 311 312 313 313 312 310 306 303 300 298 297 297 296 296 296 295 295 294 294 293 292 290 289 287 285 283 281 279 276 274 272 269 267 266 264 262
310 309 309 309 309 309 308 307 306 305 304 304 304 304 303 303 302 301 300 299 298 298 298 298 298 298 298 296 294 292 292 292 293 295 297 298 298 296 296 296 296 297 298 300 301 303 304 306 308 310 311 313 314 313 311 308 305 302 300 299 299 299 299 299 298 298 297 297 296 294 293 292 290 288 287 285 283 281 278 276 273 270 268 266 264 262
310 310 310 309 309 309 308 307 306 305 304 304 304 304 304 303 302 301 300 299 298 297 297 298 298 298 297 296 294 293 292 292 294 296 298 299 298 297 296 296 296 297 298 300 302 303 305 307 309 310 312 314 314 313 310 307 304 302 302 301 301 301 301 301 301 300 299 298 297 295 294 293 291 290 289 287 286 284 282 279 276 273 270 267 265 262
310 310 310 309 309 308 307 306 305 305 305 305 305 305 304 303 302 301 300 298 297 297 297 298 298 298 297 295 294 293 293 293 295 297 299 300 299 297 296 296 296 297 298 300 302 303 305 307 309 311 313 314 314 312 309 307 305 304 304 303 303 303 303 303 302 301 300 299 297 296 295 294 293 292 291 290 288 287 285 283 281 278 274 270 267 264
310 310 310 309 309 308 307 306 305 305 305 305 305 305 305 304 303 301 300 298 298 298 298 299 299 299 298 296 294 293 293 294 296 298 301 301 300 297 296 296 296 297 298 300 301 303 305 307 309 312 314 315 314 312 310 308 307 306 306 306 305 305 304 304 303 301 300 299 298 297 296 295 294 294 293 292 291 290 288 287 285 282 279 275 271 267
310 310 309 309 308 308 307 306 305 305 306 306 306 306 306 305 303 302 300 299 298 299 299 300 301 300 299 298 297 295 295 295 297 300 302 302 300 297 295 295 296 297 298 299 301 303 305 307 310 313 315 315 314 313 311 310 309 308 308 307 307 306 305 304 303 302 301 300 299 298 298 297 297 296 296 295 294 293 291 289 288 286 283 280 277 273
311 310 309 309 308 308 307 306 306 307 307 307 307 307 306 305 304 302 300 299 298 299 300 301 301 301 300 299 298 298 297 297 298 301 303 303 300 296 294 294 294 295 297 299 301 303 305 308 311 314 315 316 315 314 313 312 311 310 309 308 308 306 305 304 303 302 302 301 301 301 300 300 300 300 299 298 297 295 294 292 290 289 287 284 281 278
311 310 310 309 308 308 308 307 307 307 308 308 308 307 307 305 303 302 300 298 298 299 299 300 301 301 301 300 300 299 298 298 299 302 303 302 299 295 294 293 294 296 297 299 302 304 306 309 312 315 316 316 315 315 314 313 312 311 310 309 308 307 306 305 304 303 303 303 303 303 304 304 304 303 302 301 300 299 297 295 294 292 290 288 285 282
311 311 310 310 309 309 308 308 308 308 308 308 308 308 307 306 304 301 299 298 297 298 298 300 300 301 301 301 301 300 299 299 299 301 302 301 298 295 294 294 295 297 299 301 303 306 308 311 313 316 317 316 316 315 315 314 314 313 312 310 309 308 307 306 306 306 306 306 306 307 307 307 307 306 305 304 302 301 300 298 297 296 294 292 290 287
312 311 311 310 309 309 309 309 308 308 308 308 308 308 307 306 304 302 300 298 297 297 298 299 300 300 300 300 300 299 299 298 299 301 302 302 299 297 295 296 297 299 301 304 305 307 309 312 314 316 317 317 317 316 316 315 315 314 313 311 310 309 308 308 308 308 309 309 309 309 309 309 308 307 306 304 303 301 300 300 299 298 298 296 294 292
312 312 311 310 310 310 309 309 308 308 308 308 308 308 307 306 305 303 301 300 298 298 297 298 298 299 299 299 299 299 298 298 299 300 302 302 301 300 298 299 300 302 304 306 307 308 310 312 315 316 317 317 317 317 317 316 315 315 313 312 311 311 310 310 310 311 311 311 311 311 311 310 309 308 306 304 302 301 300 299 299 298 298 298 297 295
312 312 311 311 310 310 309 309 309 308 308 308 308 307 307 307 306 304 303 301 300 299 298 298 298 298 298 298 298 298 298 298 298 300 302 303 303 302 301 301 302 303 305 306 307 308 310 312 314 316 317 317 317 318 317 317 316 315 314 313 313 312 312 312 312 312 312 312 312 312 312 312 310 308 306 303 301 299 298 298 298 298 298 298 298 297
312 312 312 311 311 310 310 310 309 309 309 309 308 308 308 307 307 306 305 303 302 301 299 299 298 298 298 298 298 298 297 297 298 300 302 303 303 302 302 302 303 304 305 306 307 308 309 312 314 316 317 317 318 318 318 318 317 316 315 314 314 313 313 313 313 313 313 313 313 314 313 312 310 308 305 303 300 298 297 296 297 297 298 298 299 298
312 312 312 312 312 311 311 311 311 310 310 310 310 309 309 308 308 308 307 306 305 303 302 301 300 299 298 298 298 298 297 297 298 299 301 302 302 302 301 301 302 303 304 306 306 307 309 311 314 316 317 318 318 318 318 318 317 316 315 315 314 314 314 314 314 314 314 315 315 315 314 313 311 309 306 304 301 299 297 296 296 296 297 298 299 300
312 312 312 312 312 312 312 312 312 312 311 311 311 310 310 309 309 309 309 308 306 305 304 303 302 300 299 299 298 298 297 297 297 298 299 300 300 301 300 300 301 302 304 305 306 307 309 311 314 316 317 318 319 319 318 318 317 316 315 315 315 315 315 316 316 316 317 317 317 317 316 314 313 312 310 308 306 303 301 299 298 298 299 300 301 302
312 312 312 312 312 312 312 312 312 312 312 312 311 311 311 310 310 310 309 308 307 306 305 304 303 302 300 299 299 298 297 296 296 297 297 298 299 299 299 299 300 301 302 304 306 307 309 311 313 315 317 318 318 318 318 317 317 316 316 316 317 317 318 319 319 319 319 319 318 318 317 317 318 318 317 315 312 309 307 306 305 305 305 306 306 306
311 311 312 312 312 312 312 312 312 312 312 312 312 312 311 311 310 309 309 308 307 306 306 305 304 303 301 300 299 298 297 296 296 296 296 297 297 297 297 298 298 300 301 303 305 307 309 311 313 315 317 318 318 318 318 317 317 317 317 318 319 320 321 321 321 321 319 318 318 318 319 322 324 325 324 321 318 316 314 314 313 313 313 313 313 312
311 311 311 311 311 311 311 311 311 311 311 311 311 311 311 311 310 309 308 308 307 306 306 305 304 303 302 301 300 299 297 296 295 295 295 296 296 296 296 296 297 298 300 302 304 306 308 310 313 315 316 317 318 318 318 317 317 317 318 320 321 322 322 322 321 320 318 317 317 319 323 327 329 330 328 326 324 323 322 320 320 320 320 319 319 318
310 310 310 310 310 310 311 311 311 311 311 311 311 311 311 310 310 309 308 308 307 307 306 305 304 303 303 302 301 300 298 297 295 295 294 295 295 295 294 295 295 297 299 301 303 305 308 310 312 314 316 317 318 318 318 317 317 318 320 321 322 322 322 321 320 318 317 317 319 323 328 331 332 332 331 331 330 329 328 326 325 325 324 324 323 322
310 310 310 310 310 310 310 310 310 310 310 310 310 310 310 310 309 309 309 308 308 307 307 306 305 304 303 302 301 300 299 298 296 295 295 294 294 294 293 293 294 295 297 300 302 305 307 310 312 314 315 316 317 318 317 317 318 319 321 322 323 323 322 320 318 317 317 319 324 329 332 333 333 333 333 333 333 333 332 331 329 328 327 327 327 326
310 310 310 310 310 310 310 310 310 310 310 310 310 310 310 310 310 310 310 309 309 308 308 307 307 306 304 303 302 301 300 299 298 296 295 295 294 293 293 292 293 294 295 298 301 304 307 310 312 314 315 316 316 316 317 317 318 320 321 323 324 323 322 320 319 318 320 325 329 333 334 334 334 333 334 334 335 335 334 332 331 330 329 329 329 328
310 310 310 310 310 310 310 310 310 310 310 311 311 311 312 312 312 312 311 311 311 311 310 310 309 308 307 306 304 303 302 301 299 297 296 295 295 294 293 292 292 292 294 296 299 303 306 309 311 313 314 315 315 315 316 317 319 321 323 324 324 324 323 321 320 321 324 329 332 333 333 333 332 332 333 333 334 334 333 332 331 330 330 330 330 330
310 309 310 310 310 310 310 310 311 311 311 312 312 313 313 314 314 314 314 314 314 314 314 313 312 310 309 308 307 306 305 303 301 299 298 297 295 294 293 292 292 292 293 295 298 302 305 308 310 312 313 314 313 313 314 316 319 322 324 325 325 324 323 321 321 323 327 331 332 332 330 330 330 330 330 330 331 331 331 330 330 330 330 331 331 331
309 310 310 310 310 310 311 311 311 312 313 313 314 315 315 316 316 316 317 317 317 317 317 316 315 314 313 311 310 309 308 306 304 302 301 299 297 295 294 293 292 292 293 295 298 301 304 307 310 312 313 313 312 311 311 314 318 322 324 324 323 322 321 320 320 323 327 329 329 328 327 327 327 327 327 328 328 328 329 328 329 330 331 332 333 332
310 310 310 310 310 311 311 312 312 313 314 315 315 316 317 318 318 319 319 319 319 319 319 318 318 317 316 315 314 312 311 309 308 306 304 302 300 298 296 294 293 293 294 295 298 301 304 307 309 311 312 312 312 311 311 313 316 320 322 322 322 321 319 318 319 322 325 326 325 325 325 324 325 325 326 327 327 327 327 328 329 330 332 333 332 331
310 310 311 311 311 312 312 313 314 314 315 315 316 317 318 319 320 320 320 321 321 321 320 320 320 319 319 318 317 316 315 313 312 310 308 306 303 300 298 296 295 294 295 296 298 301 304 307 309 311 312 312 311 311 311 313 316 318 320 321 320 319 317 316 317 320 321 322 322 323 324 324 325 326 327 328 328 328 328 328 329 331 331 331 329 327
311 311 311 312 312 313 313 314 315 315 316 316 317 318 319 320 320 321 321 321 321 321 321 321 321 321 321 320 320 319 318 316 315 313 311 309 306 303 300 298 296 296 296 297 299 301 304 307 309 311 312 312 311 310 310 312 315 317 318 318 319 319 317 315 316 317 319 320 321 322 324 326 327 329 330 330 330 330 329 330 330 329 328 326 324 322
312 312 312 313 313 314 315 315 316 316 317 317 318 318 319 320 320 321 321 321 321 322 322 322 322 322 322 322 321 321 320 319 318 316 314 312 309 306 303 300 298 297 297 298 300 301 304 307 310 312 313 313 312 310 310 311 314 316 316 316 317 318 317 316 316 316 318 319 321 324 326 329 332 333 334 333 333 332 331 330 329 327 325 322 321 321
313 313 313 314 315 316 316 317 317 317 317 318 318 318 319 320 320 320 320 321 321 321 321 322 322 322 322 322 322 322 321 321 320 318 317 314 312 309 306 303 301 299 299 299 300 302 304 307 310 312 313 312 311 310 310 312 314 316 317 317 317 317 316 316 317 318 320 322 324 327 330 333 336 337 337 336 335 334 332 330 328 325 323 322 322 322
313 314 314 315 316 317 318 318 318 318 318 318 318 318 319 319 320 320 320 320 320 320 321 321 321 321 321 321 321 321 321 321 320 319 318 316 314 312 309 306 304 301 300 299 300 302 304 307 310 312 312 312 311 310 310 312 315 317 319 320 319 318 318 319 321 323 324 326 329 331 334 337 339 339 339 337 336 334 332 330 328 326 324 324 325 326
314 315 316 317 318 319 319 319 319 318 318 317 317 317 318 318 319 319 319 320 320 320 320 320 321 321 321 321 321 321 320 320 320 319 319 317 316 313 311 308 306 303 301 301 301 302 304 306 309 311 312 312 311 311 312 314 316 319 321 322 321 320 322 324 327 328 330 332 334 335 337 339 340 340 339 337 335 334 332 331 329 328 328 328 328 328
316 317 317 319 319 320 320 320 319 318 318 317 317 317 317 317 318 318 318 319 319 319 320 320 320 320 320 321 321 320 320 319 319 318 318 317 316 314 312 310 308 305 304 302 303 303 305 307 309 311 311 311 312 312 314 316 319 321 323 322 322 322 326 329 331 333 336 338 338 338 339 340 340 340 338 335 333 332 332 331 330 330 330 330 330 330
318 319 319 320 320 320 320 320 319 318 318 317 317 316 316 317 317 317 318 318 318 319 319 319 319 320 320 321 321 321 320 319 318 317 316 316 315 314 313 311 309 307 305 304 304 305 306 308 309 310 310 311 311 313 315 319 321 322 321 321 323 326 332 335 337 339 341 341 341 340 340 341 340 339 336 334 333 332 331 331 331 331 332 332 332 332
320 320 321 321 321 320 320 319 319 318 318 317 316 316 316 316 316 317 317 318 318 318 318 318 319 319 320 320 321 322 322 321 319 318 316 315 314 313 312 311 310 308 307 306 306 307 307 308 309 309 310 309 310 312 316 319 321 321 321 322 326 332 339 343 343 344 344 343 341 340 340 341 340 338 336 335 333 332 331 331 331 333 334 336 336 337
322 321 321 321 320 320 320 319 319 318 318 317 316 316 316 316 316 316 317 317 317 317 317 318 318 318 319 320 321 322 323 323 322 320 317 315 313 312 312 310 309 308 307 307 308 308 309 309 309 309 308 308 309 311 314 318 320 320 321 324 330 338 346 348 347 346 344 342 340 340 341 342 341 340 338 336 334 333 332 332 333 335 338 340 341 342
323 322 322 321 320 320 319 319 319 318 318 317 316 316 316 316 316 316 317 317 317 317 317 317 317 317 319 320 321 322 323 324 323 322 319 316 314 312 311 309 308 308 308 308 309 310 310 310 309 307 305 306 308 310 313 316 318 320 322 327 333 342 350 353 351 347 344 340 339 340 342 343 343 342 340 337 335 334 333 334 336 339 342 344 346 347
325 324 322 322 321 320 320 319 319 318 317 317 316 316 316 316 316 316 316 316 316 316 316 316 316 317 318 319 321 322 323 324 324 323 320 318 315 312 310 308 307 307 308 309 310 311 312 311 310 306 302 302 305 309 312 314 316 319 321 326 334 345 356 358 354 347 342 339 339 341 343 343 343 342 340 338 337 336 336 337 340 343 346 349 350 352
326 325 324 323 322 321 321 320 319 318 318 317 316 316 316 316 316 316 316 316 316 316 316 316 316 316 317 319 320 322 323 324 324 324 322 319 316 313 310 308 306 305 307 309 311 312 312 312 311 308 302 300 303 307 312 315 316 317 319 324 335 350 2 2 355 347 341 339 341 343 344 344 343 342 341 340 340 340 341 342 345 348 351 354 355 356
Height
5527 5522 5518 5514 5511 5507 5501 5495 5492 5489 5484 5477 5471 5466 5462 5458 5453 5447 5442 5438 5433 5428 5423 5418 5413 5410 5406 5403 5400 5397 5394 5391 5389 5387 5385 5384 5382 5380 5379 5378 5376 5375 5373 5372 5370 5369 5367 5366 5365 5363 5361 5360 5358 5357 5355 5354 5352 5350 5349 5347 5345 5344 5343 5341 5340 5339 5337 5335 5335 5333 5332 5331 5330 5330 5329 5329 5328 5328 5328 5328 5328 5328 5329 5329 5330 5331
5520 5515 5510 5506 5504 5500 5495 5488 5483 5478 5475 5470 5463 5457 5452 5448 5443 5438 5432 5427 5422 5417 5413 5409 5405 5401 5398 5395 5393 5390 5387 5385 5383 5382 5380 5379 5377 5376 5375 5374 5372 5371 5370 5368 5367 5365 5364 5363 5361 5360 5358 5357 5355 5354 5352 5350 5349 5347 5346 5344 5342 5341 5339 5338 5336 5335 5334 5332 5331 5330 5329 5327 5326 5325 5325 5325 5324 5324 5324 5324 5324 5324 5324 5324 5325 5326
5514 5509 5503 5498 5495 5492 5487 5482 5475 5469 5463 5459 5454 5449 5443 5438 5433 5428 5423 5418 5413 5408 5403 5400 5397 5395 5392 5389 5387 5385 5382 5380 5379 5377 5376 5375 5373 5372 5371 5370 5369 5367 5366 5365 5363 5362 5361 5360 5358 5357 5355 5354 5352 5351 5350 5348 5346 5345 5343 5341 5340 5338 5336 5335 5333 5331 5330 5329 5327 5326 5325 5324 5323 5322 5321 5320 5320 5320 5319 5319 5319 5319 5320 5320 5320 5321
5506 5502 5497 5491 5486 5482 5478 5473 5467 5461 5454 5449 5444 5439 5434 5428 5423 5418 5414 5409 5405 5401 5396 5393 5390 5389 5386 5384 5382 5380 5378 5376 5375 5373 5372 5371 5370 5369 5368 5367 5365 5364 5363 5361 5360 5359 5358 5356 5355 5354 5352 5351 5350 5348 5346 5345 5343 5341 5340 5338 5336 5335 5333 5331 5330 5328 5327 5325 5324 5322 5321 5320 5319 5318 5317 5316 5315 5315 5314 5315 5315 5315 5315 5315 5316 5316
5497 5494 5490 5484 5479 5473 5468 5463 5457 5451 5445 5439 5433 5429 5425 5420 5414 5409 5405 5401 5398 5394 5391 5388 5385 5383 5381 5380 5378 5376 5374 5372 5371 5370 5368 5368 5367 5366 5365 5363 5362 5360 5359 5358 5357 5356 5355 5353 5352 5350 5349 5348 5346 5345 5343 5341 5340 5338 5337 5335 5333 5331 5330 5328 5326 5325 5323 5321 5320 5319 5317 5316 5315 5314 5313 5312 5311 5310 5310 5309 5309 5310 5310 5310 5311 5312
5488 5485 5480 5476 5471 5465 5458 5453 5447 5441 5435 5429 5423 5418 5415 5412 5407 5402 5398 5394 5391 5388 5386 5383 5381 5379 5377 5375 5374 5372 5370 5369 5367 5366 5365 5365 5364 5363 5361 5360 5359 5357 5356 5355 5354 5353 5351 5350 5348 5347 5345 5344 5342 5341 5339 5338 5336 5335 5333 5332 5330 5328 5326 5325 5323 5321 5319 5318 5316 5315 5313 5312 5311 5310 5309 5308 5307 5306 5305 5305 5304 5304 5305 5305 5305 5306
5480 5475 5469 5465 5461 5455 5448 5442 5436 5431 5427 5422 5415 5409 5405 5403 5400 5396 5393 5389 5386 5383 5381 5379 5377 5376 5374 5372 5370 5369 5367 5365 5364 5363 5362 5361 5361 5360 5358 5357 5355 5354 5353 5352 5350 5349 5348 5346 5345 5343 5342 5340 5339 5337 5336 5334 5333 5331 5330 5328 5326 5325 5323 5321 5319 5317 5315 5314 5312 5310 5309 5308 5307 5305 5304 5303 5302 5301 5301 5300 5300 5300 5300 5300 5300 5301
5471 5466 5460 5454 5449 5445 5439 5431 5424 5419 5417 5414 5409 5403 5399 5396 5393 5390 5388 5385 5382 5379 5377 5376 5374 5372 5371 5369 5367 5365 5364 5362 5361 5360 5359 5359 5358 5357 5355 5354 5352 5351 5350 5349 5347 5346 5344 5343 5341 5340 5338 5337 5335 5334 5332 5330 5329 5327 5326 5324 5323 5321 5319 5317 5315 5313 5311 5310 5308 5307 5305 5304 5302 5301 5300 5299 5298 5297 5296 5295 5295 5295 5295 5295 5295 5295
5461 5456 5451 5444 5438 5433 5430 5425 5417 5410 5406 5405 5401 5397 5394 5391 5388 5385 5383 5381 5379 5376 5374 5373 5371 5370 5368 5366 5364 5362 5360 5359 5358 5357 5356 5356 5355 5354 5352 5351 5350 5348 5347 5345 5344 5342 5341 5339 5338 5336 5335 5333 5331 5330 5328 5327 5325 5324 5322 5320 5318 5316 5315 5313 5311 5309 5307 5306 5305 5303 5301 5300 5298 5297 5295 5294 5293 5292 5291 5291 5290 5290 5290 5290 5290 5291
5450 5445 5441 5435 5429 5423 5420 5417 5411 5405 5400 5396 5393 5390 5388 5386 5384 5381 5379 5378 5375 5373 5371 5369 5368 5367 5365 5363 5361 5359 5357 5356 5355 5354 5353 5353 5352 5351 5350 5348 5347 5345 5344 5342 5341 5339 5337 5336 5334 5333 5331 5329 5327 5326 5324 5323 5321 5320 5318 5316 5314 5312 5310 5308 5307 5305 5304 5302 5300 5299 5297 5295 5294 5292 5291 5290 5289 5288 5287 5286 5286 5285 5285 5285 5286 5286
5440 5435 5430 5425 5420 5415 5410 5407 5404 5400 5395 5391 5388 5384 5382 5380 5380 5378 5376 5374 5372 5370 5368 5366 5365 5364 5362 5360 5358 5356 5355 5353 5352 5351 5351 5350 5349 5348 5347 5345 5344 5342 5340 5339 5337 5336 5334 5332 5331 5329 5327 5326 5324 5322 5321 5320 5318 5316 5314 5312 5310 5308 5306 5305 5303 5301 5300 5298 5296 5294 5292 5291 5289 5288 5286 5285 5284 5283 5282 5282 5281 5281 5281 5281 5281 5281
5430 5425 5421 5417 5412 5408 5403 5399 5395 5392 5389 5386 5384 5381 5378 5376 5375 5374 5372 5370 5369 5367 5366 5364 5362 5360 5359 5357 5355 5354 5352 5351 5350 5349 5349 5348 5347 5345 5344 5342 5340 5339 5337 5336 5335 5333 5331 5329 5328 5326 5324 5322 5321 5319 5318 5316 5315 5313 5311 5309 5306 5305 5303 5301 5299 5297 5295 5294 5292 5290 5288 5286 5285 5283 5282 5281 5280 5278 5278 5277 5277 5276 5276 5276 5276 5276
5421 5416 5412 5408 5404 5400 5397 5393 5390 5387 5384 5381 5379 5377 5375 5373 5372 5371 5369 5367 5366 5365 5363 5361 5360 5358 5356 5354 5352 5350 5349 5348 5348 5347 5346 5345 5344 5342 5341 5339 5338 5336 5335 5333 5332 5330 5328 5327 5325 5323 5321 5320 5318 5317 5315 5313 5311 5309 5307 5305 5303 5301 5299 5297 5295 5293 5291 5289 5287 5285 5284 5282 5280 5279 5278 5276 5275 5274 5273 5273 5272 5272 5272 5272 5272 5272
5414 5409 5405 5400 5396 5393 5390 5388 5385 5382 5380 5377 5375 5374 5372 5371 5369 5368 5366 5365 5363 5362 5360 5359 5358 5356 5354 5351 5349 5347 5346 5346 5345 5345 5345 5343 5341 5340 5338 5337 5335 5333 5332 5330 5329 5328 5326 5324 5322 5321 5319 5317 5316 5314 5312 5310 5308 5305 5303 5301 5299 5297 5295 5293 5291 5289 5287 5285 5283 5281 5280 5278 5276 5275 5273 5272 5271 5270 5269 5269 5268 5268 5268 5267 5267 5267
5406 5402 5399 5395 5391 5388 5385 5383 5380 5378 5376 5374 5373 5371 5370 5368 5367 5365 5363 5362 5360 5359 5358 5356 5355 5354 5352 5349 5346 5344 5343 5343 5343 5343 5342 5341 5339 5337 5335 5334 5332 5331 5329 5328 5326 5325 5323 5321 5320 5318 5317 5315 5314 5312 5310 5307 5305 5302 5300 5297 5295 5293 5291 5289 5287 5285 5283 5281 5279 5277 5275 5274 5272 5270 5269 5268 5267 5266 5265 5265 5264 5264 5264 5263 5263 5263
5399 5396 5393 5390 5387 5384 5381 5379 5377 5375 5373 5371 5370 5369 5367 5365 5364 5362 5361 5359 5358 5356 5355 5354 5353 5352 5350 5347 5344 5342 5340 5340 5340 5340 5340 5339 5337 5334 5332 5331 5330 5328 5327 5325 5323 5322 5320 5319 5317 5316 5314 5313 5311 5309 5306 5304 5301 5299 5296 5294 5292 5290 5287 5285 5283 5281 5279 5277 5275 5273 5271 5270 5268 5267 5265 5264 5263 5262 5262 5261 5260 5260 5260 5259 5259 5259
5394 5390 5388 5385 5383 5380 5378 5376 5374 5372 5370 5369 5368 5366 5365 5363 5361 5360 5358 5357 5355 5354 5353 5352 5350 5349 5348 5346 5343 5340 5338 5337 5338 5338 5338 5336 5335 5332 5330 5328 5327 5326 5325 5323 5321 5319 5318 5316 5315 5313 5312 5310 5308 5306 5303 5300 5298 5295 5293 5290 5288 5286 5284 5282 5280 5278 5275 5274 5271 5270 5268 5266 5265 5264 5262 5261 5260 5259 5258 5257 5257 5256 5256 5255 5255 5255
5390 5386 5384 5381 5379 5377 5375 5373 5371 5369 5368 5367 5365 5364 5362 5360 5359 5357 5355 5354 5353 5351 5350 5349 5348 5346 5345 5344 5342 5339 5336 5335 5335 5335 5335 5334 5332 5330 5327 5325 5324 5323 5322 5320 5318 5316 5315 5314 5312 5311 5309 5307 5305 5303 5300 5297 5295 5292 5290 5287 5285 5283 5280 5278 5276 5274 5272 5270 5269 5267 5265 5264 5262 5261 5260 5259 5257 5256 5255 5254 5253 5253 5252 5252 5251 5251
5385 5383 5380 5378 5376 5374 5372 5370 5369 5367 5365 5364 5363 5361 5360 5358 5356 5355 5353 5352 5350 5349 5347 5346 5345 5344 5342 5340 5339 5337 5335 5333 5333 5333 5332 5331 5330 5328 5325 5323 5322 5321 5319 5318 5316 5314 5312 5311 5310 5308 5306 5304 5302 5299 5296 5294 5291 5289 5286 5284 5282 5279 5277 5275 5273 5271 5269 5268 5266 5264 5263 5261 5260 5259 5257 5256 5255 5254 5253 5252 5251 5250 5249 5248 5248 5247
5381 5379 5377 5375 5373 5371 5369 5368 5366 5365 5363 5361 5360 5359 5357 5355 5354 5353 5351 5349 5348 5346 5345 5344 5342 5341 5340 5338 5336 5334 5332 5331 5330 5330 5330 5329 5328 5325 5323 5321 5320 5319 5317 5315 5313 5311 5310 5308 5307 5305 5303 5301 5298 5295 5293 5290 5288 5286 5283 5281 5279 5276 5274 5272 5270 5268 5267 5265 5263 5262 5260 5259 5258 5256 5255 5254 5252 5251 5250 5249 5248 5247 5246 5245 5245 5244
5378 5375 5374 5372 5370 5369 5367 5365 5364 5362 5360 5359 5358 5356 5355 5353 5352 5350 5349 5347 5345 5344 5343 5341 5340 5339 5337 5335 5334 5332 5330 5328 5328 5328 5328 5327 5325 5323 5321 5319 5317 5316 5315 5313 5311 5309 5307 5305 5304 5302 5300 5297 5295 5292 5290 5287 5285 5283 5280 5278 5276 5274 5271 5270 5268 5266 5264 5263 5261 5260 5258 5257 5255 5254 5253 5251 5250 5249 5248 5246 5245 5244 5244 5243 5242 5241
5375 5373 5371 5369 5368 5366 5365 5363 5361 5359 5358 5356 5355 5354 5352 5351 5349 5348 5346 5345 5344 5342 5341 5340 5338 5336 5335 5333 5331 5329 5327 5326 5325 5325 5325 5325 5323 5321 5319 5316 5315 5314 5312 5310 5308 5306 5304 5302 5301 5299 5297 5294 5292 5289 5287 5284 5282 5280 5277 5275 5273 5271 5269 5267 5265 5264 5262 5261 5259 5258 5256 5255 5254 5252 5251 5249 5248 5247 5245 5244 5243 5242 5241 5240 5240 5239
5372 5370 5368 5367 5365 5363 5362 5360 5358 5356 5355 5354 5352 5351 5350 5348 5347 5345 5344 5343 5341 5340 5339 5338 5336 5335 5333 5331 5329 5327 5325 5323 5323 5323 5322 5322 5321 5319 5316 5314 5313 5311 5310 5308 5305 5303 5301 5300 5298 5296 5294 5291 5289 5286 5284 5281 5279 5277 5275 5272 5270 5269 5267 5265 5263 5262 5260 5259 5257 5256 5255 5253 5251 5250 5249 5247 5246 5245 5243 5242 5241 5240 5239 5238 5237 5236
5369 5367 5366 5364 5362 5360 5359 5357 5355 5354 5352 5351 5350 5348 5347 5345 5344 5343 5341 5340 5339 5338 5336 5335 5334 5333 5331 5330 5327 5325 5323 5321 5320 5320 5320 5319 5318 5316 5314 5312 5310 5309 5307 5305 5303 5300 5299 5297 5295 5293 5291 5288 5286 5283 5281 5279 5276 5274 5272 5270 5268 5266 5265 5263 5261 5260 5258 5257 5255 5254 5252 5251 5249 5248 5246 5245 5244 5242 5241 5240 5239 5237 5236 5235 5235 5234
5366 5365 5363 5361 5360 5358 5356 5355 5353 5351 5350 5348 5347 5345 5344 5343 5342 5340 5339 5337 5336 5335 5334 5333 5331 5330 5329 5327 5326 5324 5321 5319 5317 5317 5316 5316 5315 5313 5311 5309 5307 5306 5304 5302 5300 5298 5296 5295 5293 5290 5288 5285 5283 5280 5278 5276 5274 5271 5270 5268 5266 5264 5262 5261 5259 5258 5256 5255 5253 5252 5250 5249 5247 5245 5244 5243 5241 5240 5239 5237 5236 5235 5234 5233 5232 5231
5364 5362 5360 5359 5357 5355 5354 5352 5350 5349 5347 5345 5344 5343 5341 5340 5339 5338 5337 5335 5334 5332 5331 5330 5329 5328 5326 5325 5323 5321 5319 5317 5315 5314 5314 5313 5312 5310 5308 5306 5305 5303 5302 5300 5298 5295 5294 5292 5290 5288 5286 5283 5280 5278 5275 5273 5271 5269 5267 5265 5264 5262 5260 5259 5257 5256 5254 5253 5251 5250 5248 5247 5245 5244 5242 5240 5239 5238 5236 5235 5234 5233 5232 5230 5230 5229
5361 5360 5358 5356 5355 5353 5351 5350 5348 5346 5344 5343 5341 5340 5339 5337 5336 5335 5334 5332 5331 5330 5328 5327 5326 5325 5324 5322 5321 5319 5317 5315 5313 5312 5311 5310 5309 5307 5306 5304 5302 5301 5300 5298 5296 5293 5291 5290 5288 5286 5283 5281 5278 5275 5273 5271 5269 5267 5265 5263 5262 5260 5259 5257 5255 5254 5252 5251 5249 5248 5246 5245 5243 5241 5240 5239 5237 5236 5235 5233 5232 5231 5230 5229 5228 5226
5359 5358 5356 5354 5352 5350 5349 5347 5345 5344 5342 5340 5339 5337 5336 5335 5333 5332 5331 5330 5328 5327 5326 5324 5323 5322 5321 5320 5318 5316 5315 5312 5311 5310 5309 5308 5306 5305 5303 5301 5300 5298 5297 5296 5294 5291 5289 5287 5285 5284 5281 5278 5276 5273 5271 5269 5267 5265 5263 5261 5260 5258 5257 5255 5254 5252 5250 5249 5247 5246 5244 5243 5241 5240 5238 5236 5235 5234 5232 5231 5230 5229 5228 5227 5226 5225
5357 5355 5354 5352 5350 5348 5347 5345 5343 5342 5340 5338 5336 5335 5333 5332 5330 5329 5328 5326 5325 5324 5323 5321 5320 5319 5318 5317 5315 5314 5312 5310 5308 5307 5306 5305 5304 5302 5301 5299 5297 5296 5295 5294 5291 5289 5286 5284 5283 5281 5279 5276 5274 5271 5269 5267 5265 5263 5261 5260 5258 5256 5255 5253 5252 5250 5248 5247 5245 5244 5242 5241 5239 5238 5236 5235 5233 5232 5231 5230 5229 5228 5226 5225 5224 5223
5356 5354 5352 5350 5348 5346 5345 5343 5341 5340 5338 5336 5334 5332 5330 5329 5327 5326 5325 5323 5322 5321 5319 5318 5317 5315 5314 5313 5312 5311 5309 5307 5305 5304 5303 5302 5301 5300 5298 5296 5295 5293 5292 5291 5290 5287 5284 5282 5280 5278 5276 5274 5272 5270 5267 5265 5263 5261 5260 5258 5256 5255 5253 5252 5250 5249 5247 5245 5244 5242 5241 5239 5237 5236 5235 5233 5232 5230 5229 5228 5227 5226 5225 5224 5222 5221
5354 5352 5350 5349 5347 5345 5343 5341 5339 5337 5336 5334 5332 5330 5328 5326 5325 5323 5322 5320 5319 5318 5316 5315 5313 5312 5311 5310 5309 5308 5306 5305 5303 5301 5300 5299 5298 5297 5295 5294 5292 5291 5290 5288 5287 5286 5283 5280 5278 5275 5274 5272 5270 5268 5266 5264 5262 5260 5258 5256 5255 5253 5252 5250 5249 5247 5246 5244 5242 5241 5239 5237 5236 5234 5233 5231 5230 5229 5228 5226 5225 5224 5223 5222 5220 5219
5352 5351 5349 5347 5345 5343 5341 5339 5337 5335 5334 5332 5330 5328 5326 5324 5322 5320 5319 5317 5316 5314 5313 5311 5310 5309 5308 5306 5305 5304 5302 5301 5300 5298 5297 5297 5295 5294 5293 5291 5290 5288 5287 5286 5285 5283 5282 5279 5276 5274 5271 5269 5267 5265 5264 5262 5260 5259 5257 5255 5254 5252 5251 5249 5248 5246 5245 5243 5241 5239 5237 5236 5234 5233 5231 5230 5229 5227 5226 5225 5224 5222 5221 5220 5218 5217
5350 5349 5347 5345 5343 5341 5339 5337 5335 5334 5332 5330 5328 5326 5324 5322 5320 5318 5316 5314 5313 5311 5310 5308 5307 5305 5305 5303 5302 5300 5299 5298 5296 5295 5294 5294 5293 5291 5290 5289 5287 5286 5285 5283 5282 5280 5279 5277 5275 5272 5270 5267 5265 5264 5262 5260 5259 5257 5255 5254 5253 5251 5250 5248 5247 5245 5243 5241 5240 5238 5236 5234 5233 5231 5230 5228 5227 5225 5224 5223 5221 5220 5219 5217 5216 5215
5348 5346 5345 5343 5341 5339 5337 5335 5333 5331 5330 5328 5326 5324 5322 5320 5318 5316 5314 5312 5310 5308 5307 5305 5304 5302 5301 5300 5299 5298 5296 5295 5293 5292 5291 5290 5290 5288 5287 5286 5285 5283 5282 5281 5280 5278 5276 5275 5273 5270 5268 5265 5263 5261 5260 5259 5257 5255 5254 5253 5251 5250 5248 5247 5245 5244 5242 5240 5238 5236 5235 5233 5232 5230 5229 5227 5225 5224 5222 5220 5219 5218 5216 5215 5213 5212
5346 5345 5343 5341 5339 5337 5335 5333 5331 5330 5327 5325 5324 5322 5320 5318 5315 5314 5312 5310 5308 5306 5304 5302 5300 5299 5298 5297 5296 5295 5293 5292 5290 5289 5288 5287 5286 5285 5285 5283 5282 5281 5280 5279 5278 5276 5274 5272 5270 5268 5266 5264 5262 5260 5258 5257 5255 5254 5252 5251 5250 5248 5247 5245 5244 5242 5241 5239 5237 5235 5234 5232 5231 5229 5227 5225 5224 5222 5220 5219 5217 5215 5214 5212 5210 5209
5345 5343 5341 5339 5337 5335 5333 5331 5329 5327 5325 5324 5321 5320 5318 5315 5314 5311 5310 5308 5306 5304 5302 5300 5298 5296 5295 5294 5293 5292 5290 5289 5288 5286 5285 5284 5283 5282 5281 5280 5279 5278 5277 5276 5275 5274 5272 5270 5268 5266 5264 5262 5260 5259 5257 5255 5254 5253 5251 5250 5248 5246 5245 5244 5242 5241 5239 5238 5236 5235 5233 5231 5230 5228 5226 5224 5222 5220 5218 5217 5215 5213 5211 5209 5207 5205
5342 5340 5339 5337 5335 5333 5331 5330 5328 5326 5324 5322 5320 5318 5316 5314 5312 5310 5308 5306 5304 5302 5300 5298 5296 5294 5292 5291 5290 5289 5287 5286 5285 5284 5282 5281 5280 5280 5279 5277 5276 5275 5275 5274 5273 5272 5270 5269 5266 5264 5262 5260 5259 5257 5256 5255 5253 5252 5250 5249 5247 5245 5244 5242 5241 5240 5238 5236 5235 5234 5232 5230 5228 5226 5224 5222 5220 5219 5217 5215 5213 5211 5209 5206 5205 5202
5340 5338 5336 5335 5333 5331 5330 5328 5326 5324 5322 5320 5318 5316 5314 5312 5310 5308 5306 5304 5302 5300 5299 5296 5294 5292 5290 5288 5287 5285 5285 5283 5282 5281 5280 5279 5278 5277 5276 5275 5274 5273 5272 5271 5270 5269 5268 5266 5265 5263 5260 5259 5257 5255 5255 5253 5252 5251 5250 5248 5246 5245 5243 5241 5240 5238 5237 5235 5234 5232 5230 5229 5227 5225 5223 5221 5219 5217 5215 5213 5211 5209 5207 5204 5202 5200
5337 5336 5334 5332 5331 5329 5328 5326 5324 5322 5320 5318 5316 5315 5313 5311 5309 5307 5305 5303 5301 5299 5297 5295 5293 5290 5288 5286 5285 5283 5282 5281 5280 5278 5277 5276 5275 5274 5274 5272 5271 5270 5270 5269 5268 5267 5266 5264 5263 5261 5259 5257 5255 5254 5253 5252 5251 5250 5249 5248 5246 5244 5242 5240 5239 5237 5235 5234 5233 5231 5230 5228 5225 5223 5221 5219 5217 5215 5214 5212 5210 5207 5205 5203 5201 5199
5335 5334 5332 5330 5329 5327 5326 5324 5322 5320 5319 5317 5315 5313 5311 5310 5308 5305 5304 5302 5300 5298 5296 5294 5291 5289 5287 5285 5283 5281 5280 5279 5277 5276 5275 5274 5272 5271 5271 5270 5269 5268 5267 5266 5265 5265 5263 5262 5260 5259 5257 5256 5254 5253 5252 5250 5249 5248 5247 5246 5245 5243 5241 5239 5237 5236 5235 5233 5232 5230 5229 5226 5225 5222 5220 5218 5216 5214 5212 5210 5208 5206 5204 5202 5200 5198
5333 5332 5330 5329 5327 5325 5324 5322 5320 5319 5317 5315 5314 5312 5310 5309 5307 5305 5303 5301 5299 5297 5295 5293 5290 5288 5286 5284 5281 5280 5278 5276 5275 5274 5273 5271 5270 5269 5268 5267 5267 5266 5265 5265 5263 5262 5261 5260 5258 5257 5255 5254 5253 5252 5251 5249 5248 5247 5246 5245 5243 5242 5240 5238 5236 5235 5234 5232 5231 5229 5227 5225 5223 5221 5219 5217 5215 5213 5211 5209 5206 5204 5203 5201 5200 5197
5332 5330 5329 5327 5326 5324 5322 5320 5319 5317 5315 5314 5312 5310 5309 5307 5306 5304 5302 5300 5298 5296 5294 5292 5290 5288 5286 5283 5281 5278 5276 5275 5273 5272 5271 5270 5268 5267 5266 5265 5264 5264 5263 5263 5262 5260 5259 5258 5256 5255 5254 5253 5251 5250 5250 5248 5247 5245 5244 5243 5241 5240 5239 5238 5236 5234 5233 5231 5230 5228 5226 5225 5222 5220 5218 5216 5214 5212 5210 5208 5206 5204 5202 5200 5197 5195
5330 5329 5327 5326 5324 5322 5320 5319 5317 5315 5314 5312 5310 5309 5307 5306 5304 5302 5301 5299 5297 5295 5293 5291 5289 5287 5285 5283 5280 5278 5275 5273 5271 5270 5269 5267 5266 5265 5264 5263 5262 5261 5261 5261 5260 5259 5257 5256 5255 5253 5252 5251 5250 5249 5248 5247 5245 5244 5242 5241 5240 5239 5237 5236 5235 5234 5232 5231 5229 5227 5225 5224 5221 5220 5218 5215 5214 5211 5210 5207 5205 5203 5201 5198 5196 5193
5329 5328 5326 5324 5322 5321 5319 5317 5315 5314 5312 5311 5309 5307 5306 5304 5302 5301 5299 5297 5295 5293 5291 5290 5288 5286 5284 5282 5280 5278 5275 5273 5270 5269 5267 5265 5264 5263 5262 5261 5260 5260 5259 5259 5258 5257 5256 5255 5253 5252 5250 5250 5249 5248 5247 5246 5245 5243 5241 5240 5239 5237 5236 5235 5234 5233 5231 5230 5228 5226 5225 5223 5221 5219 5217 5215 5213 5211 5209 5206 5204 5202 5200 5197 5194 5192
5328 5326 5325 5323 5321 5320 5318 5316 5314 5312 5311 5309 5308 5306 5304 5302 5300 5299 5297 5295 5294 5292 5290 5288 5286 5284 5282 5280 5279 5277 5275 5273 5270 5268 5266 5264 5263 5261 5260 5259 5258 5258 5257 5257 5256 5255 5255 5253 5252 5250 5249 5248 5247 5246 5245 5244 5243 5242 5240 5239 5238 5236 5235 5234 5233 5232 5230 5229 5228 5226 5224 5222 5220 5218 5216 5214 5212 5210 5207 5205 5203 5201 5198 5195 5193 5190
5326 5325 5323 5321 5320 5318 5316 5315 5313 5311 5309 5308 5306 5304 5302 5301 5299 5297 5295 5294 5292 5290 5288 5286 5284 5282 5280 5279 5277 5275 5274 5272 5270 5268 5266 5264 5262 5260 5259 5258 5257 5256 5255 5255 5254 5254 5253 5252 5250 5249 5248 5247 5246 5245 5244 5243 5242 5240 5240 5238 5237 5235 5235 5233 5232 5231 5230 5228 5227 5225 5224 5221 5220 5217 5215 5213 5210 5208 5206 5205 5202 5200 5197 5195 5191 5188
5325 5324 5322 5320 5318 5317 5315 5313 5311 5310 5308 5306 5304 5302 5300 5299 5297 5295 5294 5292 5290 5288 5286 5285 5283 5280 5279 5277 5275 5274 5272 5270 5269 5267 5265 5264 5261 5260 5258 5256 5255 5254 5254 5253 5252 5252 5251 5250 5249 5248 5247 5246 5245 5244 5243 5241 5240 5239 5238 5237 5236 5235 5234 5233 5231 5230 5229 5228 5226 5225 5223 5221 5219 5217 5214 5212 5210 5208 5205 5204 5202 5199 5196 5194 5190 5187
5324 5322 5320 5319 5317 5315 5313 5312 5310 5308 5306 5304 5302 5301 5299 5297 5295 5294 5292 5290 5288 5286 5285 5283 5281 5279 5277 5275 5274 5272 5270 5269 5267 5266 5264 5263 5261 5259 5257 5256 5254 5253 5252 5251 5251 5250 5250 5249 5248 5247 5246 5245 5244 5243 5242 5241 5240 5238 5237 5236 5235 5234 5233 5232 5231 5230 5229 5227 5226 5224 5222 5220 5218 5216 5214 5211 5209 5207 5205 5203 5200 5198 5195 5192 5189 5186
5323 5321 5320 5318 5316 5314 5312 5310 5308 5306 5305 5303 5301 5299 5297 5295 5293 5292 5290 5288 5286 5285 5283 5281 5279 5277 5276 5274 5272 5270 5269 5267 5265 5264 5262 5261 5260 5258 5257 5255 5254 5252 5251 5250 5250 5249 5248 5247 5247 5246 5245 5244 5243 5242 5241 5240 5239 5238 5237 5236 5235 5234 5233 5232 5231 5230 5228 5227 5225 5224 5222 5220 5218 5215 5213 5211 5209 5207 5205 5202 5200 5197 5195 5191 5188 5185
5322 5320 5318 5316 5315 5313 5311 5309 5307 5305 5303 5301 5299 5297 5295 5293 5291 5290 5288 5286 5284 5283 5281 5279 5277 5276 5274 5272 5270 5269 5267 5265 5264 5262 5261 5260 5258 5257 5255 5254 5253 5252 5251 5250 5249 5248 5247 5246 5245 5245 5244 5243 5242 5241 5240 5240 5238 5237 5236 5235 5234 5233 5232 5231 5230 5229 5228 5227 5225 5224 5222 5220 5217 5215 5213 5211 5209 5206 5204 5202 5200 5197 5194 5191 5188 5185
5321 5319 5317 5315 5313 5311 5309 5307 5305 5303 5301 5299 5297 5295 5294 5292 5290 5288 5286 5284 5282 5281 5279 5277 5275 5274 5272 5270 5269 5267 5265 5264 5262 5261 5259 5258 5257 5255 5254 5253 5252 5251 5250 5249 5248 5247 5246 5245 5244 5244 5243 5243 5242 5241 5240 5239 5238 5237 5236 5235 5234 5233 5232 5231 5230 5229 5228 5226 5225 5224 5221 5219 5217 5215 5213 5211 5209 5206 5204 5202 5200 5197 5194 5191 5188 5185